Tracking 18647 objects as of 28-May-2017
HD Live streaming from Space Station
objects crossing your sky now

HELIOS 1B

Track HELIOS 1B now!
10-day predictions
HELIOS 1B is classified as:


NORAD ID: 25977
Int'l Code: 1999-064A
Perigee: 628.1 km
Apogee: 630.5 km
Inclination: 98.1 °
Period: 97.1 minutes
Semi major axis: 7000 km
RCS: 8.0113 m2 (large)
Launch date: December 3, 1999
Source: France (FR)
Launch site: FRENCH GUIANA (FRGUI)

Helios 1B was a French military photo-reconnoissance spacecraft launched by an Ariane rocket at 16:22 UT.
Your satellite tracking list
Your tracking list is empty





NASA's NSSDC Master Catalog

Two Line Element Set (TLE):
1 25977U 99064A   17147.36948780 +.00000094 +00000-0 +18722-4 0  9990
2 25977 098.1482 258.4979 0001696 045.8346 314.3005 14.82261858209620
Source of the keplerian elements: AFSPC